Cloud_Cover
5 5 5 5 5 0 0 0 0 0 0 0 0 0 0 0 0 0 0 0 0 0 0 0 0 0 0 0 32 91 100 100 100 100 100 100 100 100
0 0 0 4 5 3 0 0 4 4 2 0 0 0 0 0 0 0 0 0 0 0 0 0 0 0 0 0 0 60 100 100 100 100 100 100 100 100
0 0 0 0 0 0 0 4 5 5 5 0 0 0 0 0 0 0 0 0 0 0 0 0 0 0 0 0 0 0 14 100 100 100 100 100 100 100
5 5 3 2 4 3 5 5 5 5 5 5 0 0 0 0 0 0 0 0 0 0 0 0 0 0 0 0 0 0 0 87 100 100 100 100 100 100
4 5 5 5 5 5 5 5 5 5 5 6 5 3 1 2 1 0 0 0 0 0 0 0 0 3 0 0 0 0 0 0 62 61 100 100 100 100
5 5 5 5 5 5 5 5 15 5 21 68 85 6 5 1 5 5 0 0 0 0 0 0 1 0 0 0 0 0 0 0 0 36 100 100 100 100
5 5 26 16 68 44 66 76 96 98 96 96 95 98 18 5 5 5 5 3 0 0 1 0 0 0 0 0 0 0 0 0 0 65 74 100 100 100
74 83 92 92 88 90 99 96 100 100 100 100 100 100 98 77 45 34 74 58 5 2 5 2 0 0 0 0 0 0 0 0 0 39 69 100 100 100
80 70 50 29 56 16 43 32 53 77 97 100 100 98 100 91 100 90 100 100 91 6 67 23 5 0 0 0 0 0 1 30 5 0 100 100 100 100
44 5 5 5 5 5 73 87 89 87 68 31 62 55 85 80 98 93 100 99 99 89 85 97 5 0 0 0 0 0 1 0 33 0 64 100 100 100
56 48 42 28 44 88 99 100 100 100 99 77 75 92 100 99 99 95 85 100 56 83 81 99 32 8 0 0 5 6 3 0 2 1 41 100 100 100
93 98 88 100 100 100 100 97 95 97 100 100 100 86 54 84 68 71 89 100 92 16 96 98 81 85 14 5 18 3 0 0 0 18 18 44 100 100
100 100 100 100 100 100 100 96 74 70 85 83 95 97 69 94 89 52 5 69 81 94 96 100 28 96 100 64 5 5 4 3 0 0 20 100 100 100
63 95 100 100 88 88 100 100 98 100 96 100 100 100 100 94 93 68 78 86 84 21 5 99 51 87 73 49 73 31 5 2 1 5 1 85 100 100
90 75 98 100 100 91 15 7 8 36 64 98 63 59 22 67 100 99 85 78 72 30 5 12 6 27 88 78 54 68 57 5 5 7 9 66 100 100
84 77 25 94 100 100 100 53 53 54 52 32 59 65 74 98 89 98 96 83 100 100 92 74 19 34 20 5 5 52 82 72 5 5 5 16 100 100
100 84 95 99 79 89 89 54 5 9 60 74 68 22 87 74 83 79 95 97 100 100 98 82 100 100 96 78 79 44 100 49 12 16 7 5 100 100
97 98 100 100 100 98 97 99 100 100 100 100 100 88 65 80 100 100 100 100 95 100 99 100 100 97 100 100 94 79 93 44 13 61 74 51 76 100
99 100 100 100 100 100 100 100 100 100 100 100 100 89 94 87 99 72 100 99 100 82 77 99 82 74 99 78 90 21 20 5 51 99 100 79 53 100
100 100 100 100 100 100 100 100 100 100 99 100 98 85 81 86 96 100 94 100 100 100 98 73 89 83 95 82 95 17 18 5 46 94 100 70 72 100
100 100 100 100 100 100 100 100 100 89 99 100 100 100 99 100 100 100 100 100 100 100 100 96 6 64 59 60 94 10 5 5 7 77 97 100 72 100
100 100 100 100 100 99 77 98 100 98 98 98 99 100 100 100 100 100 100 100 100 100 98 100 78 7 78 100 83 5 7 30 5 4 5 17 56 100
100 100 100 100 100 99 56 98 100 100 100 100 100 99 100 100 100 100 100 100 100 100 100 98 100 91 66 95 98 58 39 37 92 23 5 5 5 61